Notices

What's New in latest Release from April 7th, 2021:

- Updated Glossary, including Speed of Maximum Gust, and Total Hourly Precipitation

- Updated national and regional climate services offices contacts and prices information

- Addition of station inventory lists for 1981-2010, 1971-2000, and 1961-1990 Normals.

If you haven't already, please take our survey and provide feedback about our website: https://eccc.sondage-survey.ca/f/LanguageSelection.aspx?s=442ca660-fcf1-47c0-95a9-59707d6fd709

Hourly Data Report for February 02, 2012

HALIFAX STANFIELD INT'L A
NOVA SCOTIA

44°52'48.060" N
63°30'00.050" W
145.40 m
8202250
71395
YHZ

Download Data

Hourly Data (February 2012)
Hourly Data Report for February 2, 2012
TIME
LST
Temp Definition
°C
Dew Point Definition
°C
Rel Hum Definition
%
Precip. Amount Definition
mm

Wind Dir Definition
10's deg

Wind Spd Definition
km/h
Visibility Definition
km
Stn Press Definition
kPa
Hmdx Definition


Wind Chill Definition


Weather Definition


00:00 -0.6 -0.8 99   36 17 0.2 98.96   -6 Freezing Fog
01:00 -1.3 -1.4 99   35 13 0.2 99.01   -6 Freezing Fog
02:00 -2.1 -2.5 97   34 15 1.2 99.05   -7 Fog
03:00 -2.5 -3.0 96   36 11 2.4 99.12   -7 Fog
04:00 -2.9 -3.5 96   33 19 3.2 99.20   -9 Snow
05:00 -3.4 -4.1 95   34 13 2.4 99.26   -8 Snow
06:00 -3.4 -4.1 95   33 17 9.7 99.35   -9 Snow
07:00 -3.8 -4.6 94   33 13 12.9 99.44   -9 Snow Showers
08:00 -3.9 -4.7 94   32 11 19.3 99.59   -8 Mostly Cloudy
09:00 -3.5 -4.3 94   34 17 19.3 99.60   -9 Mostly Cloudy
10:00 -3.3 -3.9 96   36 17 6.4 99.66   -9 Snow Showers
11:00 -3.6 -4.4 94   36 22 12.9 99.72   -10 Snow Showers
12:00 -3.8 -4.7 93   36 20 9.7 99.75   -10 Snow Showers
13:00 -3.8 -4.8 93   36 22 9.7 99.76   -10 Snow Showers
14:00 -4.0 -5.3 91   36 22 24.1 99.78   -11 Snow Showers
15:00 -4.2 -5.9 88   1 22 24.1 99.81   -11 Cloudy
16:00 -4.5 -6.0 89   36 20 24.1 99.85   -11 Cloudy
17:00 -4.7 -6.2 89   36 19 24.1 99.92   -11 Cloudy
18:00 -5.4 -6.8 90   36 20 24.1 99.98   -12 Snow Grains
19:00 -6.0 -7.4 90   36 19 24.1 100.02   -13 Cloudy
20:00 -6.4 -8.3 86   1 19 24.1 100.03   -13 Cloudy
21:00 -7.1 -8.8 88   1 26 24.1 100.03   -15 Cloudy
22:00 -7.7 -9.8 85   2 19 24.1 100.07   -15 Snow Showers
23:00 -8.4 -10.8 83   2 19 24.1 100.03   -16 Snow Showers

Notes on Data Quality.

Legend

  • E = Estimated
  • M = Missing
  • NA = Not Available*
  • [empty] = Indicates an unobserved value
Date modified: